[[{"header":{"parameterUnit":"m.s-1","parameterCategory":1,"la1":30.2991,"la2":30.254,"lo1":-89.0895,"lo2":-89.0444,"dy":0.0017,"dx":0.0017,"nx":28,"ny":28,"refTime":"2023-10-29T21:00:00:Z","depth":0,"parameterNumber":2,"parameterNumberName":"U-component_of_WINDS"},"data":[0,0,0,0,0,0,0,0,0,0,0,0,0,0,0,0,0,0,0,0,0,0,0,0,0,0,0,0,0,0,0,0,0,0,0,0,0,0,0,0,0,0,0,0,0,0,0,0,0,0,0,0,0,0,0,0,0,0,1.1164,1.1164,0,1.1126,1.1126,1.1125,1.1114,1.1114,1.1115,1.1115,1.1073,1.1071,1.107,0,0,0,0,0,0,0,0,0,0,0,0,0,1.1224,1.1223,1.1164,1.1164,1.1163,1.1126,1.1126,1.1125,1.1114,1.1114,1.1115,1.1115,1.1073,1.1072,1.107,0,0,0,0,0,0,0,0,0,0,0,0,0,1.1193,1.1223,1.1164,1.1153,1.1152,1.1126,1.1126,1.1125,1.1114,1.1114,1.1115,1.1115,1.1074,1.1072,1.107,1.1051,0,0,1.1064,1.1063,0,0,0,0,0,0,0,0,1.1195,1.1191,1.1155,1.1154,1.1152,1.1125,1.1131,1.11,1.1114,1.1128,1.1115,1.1115,1.109,1.1086,1.1079,1.1049,1.1047,1.1064,1.1062,1.1061,1.1061,0,0,0,0,0,0,0,1.1197,1.1192,1.1149,1.1155,1.1153,1.1149,1.1145,1.1125,1.1108,1.1127,1.1126,1.1122,1.1089,1.108,1.1077,1.1047,1.1064,1.1062,1.1061,1.106,1.1001,1.1,0,0,0,0,0,0,1.1201,1.1194,1.115,1.1148,1.1175,1.1148,1.1144,1.1134,1.1108,1.1104,1.1122,1.1122,1.1084,1.108,1.1076,1.1053,1.1061,1.106,1.1058,1.1001,1.1001,1.1,0,0,0,0,0,0,1.1203,1.1198,1.1152,1.1171,1.1165,1.1147,1.1136,1.1133,1.1124,1.1104,1.11,1.1117,1.1084,1.1079,1.1058,1.1051,1.1059,1.1057,1.1002,1.1001,1.1001,1.1006,0,0,0,0,0,0,1.1205,1.1198,1.1192,1.1171,1.1164,1.1135,1.1135,1.1132,1.1121,1.1121,1.1098,1.1095,1.1084,1.1061,1.1056,1.1048,1.1055,1.1002,1.1001,1.1001,1.1006,1.1006,1.1005,0,0,0,0,0,1.1207,1.1194,1.1191,1.1186,1.1155,1.1135,1.1131,1.1119,1.1121,1.1114,1.1101,1.1095,1.1053,1.1059,1.1053,1.1045,1.1003,1.1002,1.1001,1.1007,1.1006,1.1005,0,0,0,0,0,0,1.1213,1.1191,1.1188,1.1168,1.1153,1.1133,1.1123,1.1119,1.1102,1.1102,1.1088,1.1083,1.1063,1.1052,1.1059,1.1026,1.1027,1.1025,1.1034,1.1033,1.1032,1.1035,1.1054,0,0,0,0,0,1.1212,1.1198,1.1179,1.1163,1.1157,1.1141,1.1132,1.1125,1.1108,1.1102,1.1087,1.1071,1.1054,1.1043,1.1026,1.1005,1.1,1.0997,1.0996,1.0996,1.0994,1.0982,1.098,1.0998,1.0998,1.0998,0,0,1.1209,1.1196,1.1188,1.1164,1.1152,1.1137,1.1136,1.112,1.1109,1.1099,1.1079,1.1068,1.1048,1.1027,1.1017,1.1018,1.0988,1.0995,1.0994,1.0993,1.0981,1.0979,1.0978,1.0997,1.0997,1.0997,0,0,1.1198,1.1186,1.1172,1.116,1.1143,1.1133,1.113,1.111,1.1103,1.1082,1.1075,1.1061,1.1032,1.1018,1.1008,1.0993,1.0987,1.0987,1.0984,1.0972,1.0971,1.097,1.0964,1.0962,1.0986,1.0986,1.0986,0,1.1197,1.1175,1.1165,1.115,1.1139,1.1132,1.1117,1.1106,1.1083,1.1075,1.1076,1.1041,1.1027,1.1003,1.0999,1.0991,1.0986,1.0989,1.0972,1.0971,1.0969,1.0963,1.0961,1.0986,1.0986,1.0986,1.0986,0,1.1174,1.1159,1.115,1.1129,1.1118,1.1103,1.109,1.108,1.1074,1.1064,1.1043,1.1027,1.1007,1.1001,1.0995,1.0976,1.0977,1.0975,1.0976,1.0968,1.0962,1.096,1.0986,1.0986,1.0986,1.0986,0,0,1.1163,1.1139,1.1136,1.1127,1.1107,1.1095,1.1079,1.1061,1.1052,1.1037,1.1023,1.1,1.0999,1.0987,1.0979,1.0969,1.0957,1.0968,1.0968,1.0966,1.0936,1.0936,1.0934,1.0954,1.0954,1.0953,1.0937,0,1.1149,1.1122,1.1113,1.109,1.1076,1.1069,1.1056,1.1042,1.1033,1.1019,1.1008,1.0991,1.0991,1.0984,1.0974,1.0961,1.0951,1.0962,1.094,1.0939,1.0944,1.0931,1.0932,1.0917,1.0935,1.0934,1.0934,0,1.1127,1.1114,1.109,1.1073,1.1066,1.1055,1.1037,1.1025,1.1009,1.1002,1.099,1.0983,1.0966,1.0969,1.0945,1.0953,1.0944,1.0936,1.0935,1.0932,1.0936,1.0927,1.0912,1.091,1.0931,1.0931,1.0931,0,1.1121,1.1097,1.1079,1.1072,1.1052,1.1043,1.1034,1.1019,1.1009,1.0994,1.0987,1.097,1.096,1.0946,1.0935,1.0938,1.0911,1.0914,1.0905,1.0905,1.0899,1.0899,1.0882,1.0894,1.0894,1.0894,1.0894,0,1.1105,1.1091,1.1077,1.1066,1.1049,1.1039,1.1023,1.1014,1.1,1.0987,1.098,1.0967,1.0953,1.0939,1.093,1.0911,1.0907,1.0901,1.0898,1.0901,1.0901,1.0893,1.0894,1.0894,1.0894,1.0894,1.0894,0,1.1095,1.1085,1.1066,1.1049,1.1044,1.1033,1.1018,1.1007,1.0998,1.0981,1.0977,1.0962,1.0944,1.0932,1.0909,1.0903,1.0883,1.0881,1.0888,1.0887,1.0879,1.088,1.0855,1.0851,1.0867,1.0867,1.0867,0,1.1085,1.1074,1.1056,1.1048,1.1039,1.1025,1.1015,1.1005,1.0995,1.0976,1.0967,1.095,1.0935,1.0908,1.0894,1.0877,1.0874,1.0867,1.0871,1.0874,1.0873,1.0874,1.0872,1.0866,1.0866,1.0865,1.0865,0,1.1068,1.1064,1.105,1.1035,1.1024,1.1011,1.0998,1.0991,1.0979,1.0967,1.0951,1.0939,1.0917,1.09,1.0881,1.0871,1.0866,1.0864,1.0861,1.0863,1.0868,1.0865,1.0886,1.0865,1.0865,1.0865,1.0865,1.0865,1.1057,1.1047,1.1033,1.1018,1.1008,1.0997,1.0986,1.0976,1.0962,1.0944,1.0938,1.0921,1.0905,1.088,1.087,1.0856,1.0856,1.0851,1.085,1.0849,1.0849,1.0872,1.0852,1.0852,1.0852,1.0852,1.0852,0,1.1039,1.103,1.1017,1.1,1.0988,1.0986,1.0972,1.0962,1.0947,1.0934,1.092,1.0901,1.0884,1.087,1.0853,1.0844,1.0841,1.0839,1.0839,1.0837,1.085,1.0854,1.0842,1.0842,1.0842,1.0842,1.0842,1.0842,1.1028,1.1011,1.1005,1.0983,1.0974,1.0958,1.095,1.0939,1.0929,1.0908,1.0894,1.0886,1.0872,1.0854,1.0838,1.0835,1.0828,1.0827,1.0823,1.0835,1.0836,1.0837,1.0841,1.0826,1.0826,1.0811,1.081,1.081]},{"header":{"parameterUnit":"m.s-1","parameterCategory":1,"la1":30.2991,"la2":30.254,"lo1":-89.0895,"lo2":-89.0444,"dy":0.0017,"dx":0.0017,"nx":28,"ny":28,"refTime":"2023-10-29T21:00:00:Z","depth":0,"parameterNumber":3,"parameterNumberName":"V-component_of_WINDS"},"data":[0,0,0,0,0,0,0,0,0,0,0,0,0,0,0,0,0,0,0,0,0,0,0,0,0,0,0,0,0,0,0,0,0,0,0,0,0,0,0,0,0,0,0,0,0,0,0,0,0,0,0,0,0,0,0,0,0,0,-8.3848,-8.3849,0,-8.3964,-8.3966,-8.3967,-8.3892,-8.3888,-8.3885,-8.3881,-8.3993,-8.3999,-8.4006,0,0,0,0,0,0,0,0,0,0,0,0,0,-8.3553,-8.3559,-8.3848,-8.3849,-8.3851,-8.3964,-8.3966,-8.3967,-8.3892,-8.3888,-8.3884,-8.388,-8.3991,-8.3999,-8.4006,0,0,0,0,0,0,0,0,0,0,0,0,0,-8.3677,-8.3561,-8.3848,-8.3827,-8.3826,-8.3964,-8.3966,-8.3968,-8.3893,-8.3888,-8.3883,-8.3878,-8.3989,-8.3998,-8.4007,-8.4169,0,0,-8.4036,-8.404,0,0,0,0,0,0,0,0,-8.367,-8.3687,-8.3829,-8.3829,-8.3828,-8.3908,-8.3903,-8.4035,-8.3894,-8.3868,-8.3881,-8.3875,-8.3969,-8.3979,-8.4013,-8.4174,-8.4179,-8.4037,-8.4042,-8.4046,-8.4049,0,0,0,0,0,0,0,-8.3661,-8.3682,-8.3894,-8.3831,-8.3831,-8.381,-8.3822,-8.3928,-8.3946,-8.3869,-8.3864,-8.3879,-8.3968,-8.4004,-8.4015,-8.4181,-8.4036,-8.4045,-8.405,-8.4054,-8.4481,-8.4487,0,0,0,0,0,0,-8.3655,-8.3675,-8.389,-8.3897,-8.3735,-8.3819,-8.3833,-8.3888,-8.3944,-8.3948,-8.3884,-8.3876,-8.399,-8.4004,-8.4018,-8.4212,-8.4046,-8.4055,-8.406,-8.4475,-8.4482,-8.4489,0,0,0,0,0,0,-8.3649,-8.3675,-8.3885,-8.3785,-8.381,-8.383,-8.3893,-8.3893,-8.3929,-8.3955,-8.3957,-8.3918,-8.3987,-8.4005,-8.4133,-8.4214,-8.4059,-8.4068,-8.4469,-8.4478,-8.4485,-8.46,0,0,0,0,0,0,-8.3641,-8.3674,-8.3737,-8.3787,-8.3816,-8.4,-8.3898,-8.3899,-8.3946,-8.3936,-8.3988,-8.3991,-8.3984,-8.4119,-8.4142,-8.4224,-8.4075,-8.4461,-8.4473,-8.4483,-8.4589,-8.4611,-8.4631,0,0,0,0,0,-8.3631,-8.3763,-8.374,-8.3767,-8.3896,-8.4005,-8.4021,-8.4012,-8.3953,-8.4016,-8.4033,-8.399,-8.4202,-8.4133,-8.4158,-8.4244,-8.4456,-8.4469,-8.4482,-8.4579,-8.4607,-8.463,0,0,0,0,0,0,-8.3718,-8.3769,-8.3745,-8.3897,-8.3948,-8.3992,-8.4071,-8.4042,-8.4108,-8.4096,-8.408,-8.4092,-8.4225,-8.4247,-8.417,-8.4404,-8.4319,-8.4338,-8.4385,-8.4411,-8.4432,-8.4423,-8.4083,0,0,0,0,0,-8.3756,-8.3843,-8.3881,-8.4012,-8.4039,-8.4051,-8.4098,-8.4087,-8.4138,-8.4158,-8.4184,-8.4233,-8.4311,-8.4362,-8.4435,-8.4592,-8.4601,-8.4664,-8.4684,-8.4701,-8.4717,-8.4801,-8.4829,-8.4531,-8.4531,-8.4531,0,0,-8.3833,-8.3872,-8.3927,-8.4031,-8.4068,-8.4157,-8.4069,-8.4166,-8.4231,-8.4172,-8.4295,-8.4316,-8.4369,-8.4512,-8.4576,-8.4535,-8.4802,-8.4718,-8.4731,-8.4738,-8.4818,-8.4846,-8.4871,-8.454,-8.4538,-8.4537,0,0,-8.402,-8.4058,-8.4171,-8.4212,-8.4272,-8.4279,-8.4306,-8.4356,-8.4369,-8.4492,-8.445,-8.4525,-8.466,-8.47,-8.4738,-8.4941,-8.4903,-8.4965,-8.5073,-8.5156,-8.5179,-8.52,-8.5272,-8.5298,-8.4981,-8.4981,-8.4981,0,-8.4108,-8.4242,-8.4233,-8.4334,-8.438,-8.4334,-8.4447,-8.4486,-8.4565,-8.4597,-8.455,-8.4719,-8.4751,-8.4903,-8.4953,-8.4985,-8.5014,-8.4958,-8.5177,-8.5198,-8.5217,-8.5285,-8.5312,-8.4988,-8.4987,-8.4986,-8.4986,0,-8.4347,-8.444,-8.4524,-8.4605,-8.4661,-8.4768,-8.4773,-8.483,-8.4815,-8.4826,-8.4952,-8.499,-8.507,-8.5105,-8.509,-8.5255,-8.5227,-8.5179,-8.5093,-8.5252,-8.5316,-8.5343,-8.4998,-8.4996,-8.4993,-8.4992,0,0,-8.459,-8.4667,-8.4698,-8.4734,-8.4797,-8.4868,-8.4972,-8.5053,-8.5102,-8.5158,-8.5244,-8.536,-8.5316,-8.5359,-8.5347,-8.542,-8.5578,-8.5362,-8.5363,-8.5401,-8.5762,-8.5798,-8.5828,-8.5554,-8.5559,-8.5563,-8.5757,0,-8.478,-8.4965,-8.4961,-8.5131,-8.5217,-8.5175,-8.5265,-8.5312,-8.5327,-8.5399,-8.5413,-8.5496,-8.5432,-8.5457,-8.5527,-8.5544,-8.565,-8.553,-8.5632,-8.5636,-8.562,-8.5862,-8.59,-8.6081,-8.5782,-8.5786,-8.579,0,-8.5026,-8.5094,-8.5275,-8.5326,-8.5362,-8.5444,-8.5518,-8.5589,-8.5641,-8.5646,-8.5695,-8.5672,-8.5776,-8.5689,-8.583,-8.5749,-8.579,-8.5805,-8.5811,-8.582,-8.5722,-8.5876,-8.6139,-8.6166,-8.5829,-8.5826,-8.5823,0,-8.5186,-8.5322,-8.5448,-8.548,-8.5543,-8.5602,-8.563,-8.5678,-8.5727,-8.579,-8.5822,-8.5896,-8.5936,-8.5993,-8.5991,-8.5928,-8.6134,-8.6047,-8.614,-8.614,-8.6184,-8.6182,-8.6457,-8.6212,-8.6212,-8.6211,-8.6211,0,-8.5398,-8.551,-8.5521,-8.5598,-8.5722,-8.5714,-8.5836,-8.5858,-8.5901,-8.598,-8.5947,-8.6022,-8.6014,-8.6089,-8.6087,-8.6204,-8.6222,-8.6228,-8.6226,-8.6231,-8.623,-8.6257,-8.6244,-8.6219,-8.6217,-8.6216,-8.6214,0,-8.5597,-8.5609,-8.5743,-8.5793,-8.5808,-8.5897,-8.5938,-8.601,-8.6022,-8.6122,-8.6145,-8.6163,-8.6249,-8.6253,-8.6351,-8.6349,-8.6492,-8.6476,-8.6476,-8.6473,-8.6565,-8.6557,-8.6867,-8.6908,-8.6637,-8.664,-8.6642,0,-8.5732,-8.5817,-8.5877,-8.5929,-8.5962,-8.6046,-8.6097,-8.6093,-8.6146,-8.6213,-8.6277,-8.6361,-8.6428,-8.6567,-8.6587,-8.6662,-8.6647,-8.6751,-8.6658,-8.666,-8.6648,-8.6643,-8.6651,-8.6768,-8.6771,-8.6774,-8.6776,0,-8.5969,-8.5971,-8.6047,-8.6126,-8.6189,-8.6249,-8.6306,-8.635,-8.6352,-8.6414,-8.6503,-8.6555,-8.6657,-8.674,-8.6813,-8.6839,-8.6808,-8.6805,-8.6831,-8.6836,-8.6832,-8.6835,-8.6525,-8.6798,-8.6796,-8.6794,-8.6793,-8.6792,-8.614,-8.6214,-8.6268,-8.6354,-8.6397,-8.6451,-8.6522,-8.6543,-8.6619,-8.6703,-8.6695,-8.6794,-8.6844,-8.6939,-8.6972,-8.7048,-8.7011,-8.7048,-8.7058,-8.7067,-8.7077,-8.6821,-8.7061,-8.706,-8.7059,-8.7059,-8.7058,0,-8.6375,-8.6409,-8.6488,-8.657,-8.6637,-8.6605,-8.6666,-8.6723,-8.6812,-8.6862,-8.6929,-8.7032,-8.7112,-8.7139,-8.7217,-8.7272,-8.726,-8.7293,-8.7288,-8.7295,-8.7105,-8.7075,-8.7302,-8.7302,-8.7302,-8.7301,-8.7301,-8.7301,-8.6506,-8.663,-8.6639,-8.6783,-8.6815,-8.6914,-8.6952,-8.7,-8.7041,-8.7158,-8.7226,-8.7244,-8.7284,-8.7365,-8.7437,-8.7442,-8.7472,-8.7511,-8.7511,-8.7332,-8.7308,-8.7285,-8.7257,-8.7518,-8.7518,-8.7694,-8.7696,-8.7697]}]]